Flag for U.S.A. Weather past 2 weeks in Mobile, Alabama, U.S.A.

Now
69 °F

Clear.


Feels Like: 69 °F
Forecast: 62 / 80 °F
Wind: 6 mph from Southwest

Location: Mobile Downtown Airport

Current Time: Mar 30, 2015 at 10:51:25 PM

Latest Report: Mar 30, 2015 at 9:53 PM


Visibility: 10 mi

Pressure: 30.16 "Hg

Humidity: 81%

Dew point: 63 °F

Location of MobileLocation

Historic Weather in Mobile — Graph

°F

Mobile temperature yesterday

Maximum temperature yesterday: 67 °F (at 3:53 PM)
Minimum temperature yesterday: 47 °F (at 4:53 AM)
Average temperature yesterday: 57 °F

Past Weeks' High & Low Weather Summary

 TemperatureHumidityPressure
High87 °F (Mar 17, 3:53 PM)100% (Mar 16, 7:53 AM)30.38 "Hg (Mar 16, 7:53 AM)
Low41 °F (Mar 28, 6:53 AM)23% (Mar 27, 4:53 PM)29.83 "Hg (Mar 26, 4:53 PM)
Average67 °F73%30.08 "Hg
* Reported Mar 15 8:53 PM — Mar 30 8:53 PM, Mobile, Weather by CustomWeather, © 2015

Note: Actual official high and low records may vary slightly from our data, if they occured in-between our weather recording intervals... More about our weather records

Advertising

Mobile weather history for previous 24 hours

 ConditionsComfort  
Time TempWeatherWind HumidityBarometerVisibility
8:53 PM
Mon, Mar 30
69 °FClear.7 mph79%30.15 "Hg10 mi
7:53 PM70 °FPassing clouds.6 mph76%30.13 "Hg10 mi
6:53 PM73 °FPassing clouds.7 mph66%30.12 "Hg10 mi
5:53 PM76 °FPassing clouds.9 mph62%30.12 "Hg10 mi
4:53 PM78 °FScattered clouds.12 mph56%30.12 "Hg10 mi
3:53 PM79 °FScattered clouds.12 mph54%30.14 "Hg10 mi
2:53 PM81 °FScattered clouds.9 mph51%30.16 "Hg10 mi
1:53 PM82 °FScattered clouds.6 mph40%30.19 "Hg10 mi
12:53 PM82 °FPartly sunny.9 mph41%30.21 "Hg10 mi
11:53 AM80 °FPartly sunny.10 mph49%30.24 "Hg10 mi
10:53 AM78 °FPartly sunny.9 mph54%30.26 "Hg10 mi
9:53 AM75 °FScattered clouds.9 mph62%30.27 "Hg10 mi
8:53 AM70 °FScattered clouds.5 mph79%30.26 "Hg10 mi
7:53 AM65 °FCloudy.No wind91%30.25 "Hg10 mi
7:03 AM62 °FPassing clouds.3 mph90%30.24 "Hg10 mi
5:53 AM64 °FOvercast.No wind87%30.21 "Hg10 mi
4:53 AM65 °FPassing clouds.3 mph85%30.20 "Hg10 mi
3:53 AM65 °FPassing clouds.5 mph85%30.20 "Hg10 mi
2:53 AM65 °FClear.5 mph85%30.21 "Hg10 mi
1:53 AM65 °FPassing clouds.5 mph85%30.21 "Hg10 mi
12:53 AM64 °FClear.6 mph87%30.22 "Hg10 mi
12:00 AM64 °FPassing clouds.8 mph87%30.24 "Hg10 mi
10:53 PM
Sun, Mar 29
63 °FOvercast.7 mph84%30.26 "Hg10 mi
Weather by CustomWeather, © 2015

See weather overviewHow to use our weather pages